This demonstration page uses our WeatherBlox Daily Observations layout. Learn more.

Left ArrowRight Arrow

41.12389, -100.76542

Hourly Observations for January 20, 2018

Temp ( °F °C ) Dew Point ( °F °C ) Humidity (%) Winds ( mph kmh ) Pressure ( in mb ) Visibility ( mi km ) Precip ( " mm )
12:53 am 00:53 Clear 33 0.6 28 -2.2 82 82 S 3 6 29.79 1009 10 16 0.00 0.00
1:53 am 01:53 Clear 34 1.1 29 -1.7 82 82 NNE 5 7 29.77 1008 10 16 0.00 0.00
2:53 am 02:53 Clear 33 0.6 29 -1.7 85 85 Calm 29.78 1008 10 16 0.00 0.00
3:53 am 03:53 Clear 27 -2.8 25 -3.9 92 92 WNW 3 6 29.78 1009 10 16 0.00 0.00
4:53 am 04:53 Clear 32 0 28 -2.2 85 85 ENE 3 6 29.78 1009 10 16 0.00 0.00
5:53 am 05:53 Clear 28 -2.2 25 -3.9 88 88 Calm 29.83 1010 10 16 0.00 0.00
6:53 am 06:53 Clear 30 -1.1 27 -2.8 88 88 NNE 5 7 29.84 1011 10 16 0.00 0.00
7:53 am 07:53 Clear 31 -0.6 27 -2.8 85 85 N 3 6 29.85 1011 10 16 0.00 0.00
8:53 am 08:53 Sunny 33 0.6 29 -1.7 85 85 NNE 9 15 29.86 1011 10 16 0.00 0.00
9:53 am 09:53 Sunny 38 3.3 31 -0.6 76 76 NNE 14 22 29.88 1012 10 16 0.00 0.00
10:53 am 10:53 Sunny 42 5.6 31 -0.6 65 65 NE 10 17 29.89 1012 10 16 0.00 0.00
11:53 am 11:53 Sunny 45 7.2 31 -0.6 58 58 NE 12 19 29.87 1011 10 16 0.00 0.00
12:53 pm 12:53 Sunny 47 8.3 32 0 56 56 NNE 13 20 29.84 1010 10 16 0.00 0.00
1:53 pm 13:53 Sunny 48 8.9 30 -1.1 50 50 NNE 17 28 29.80 1009 10 16 0.00 0.00
2:53 pm 14:53 Sunny 48 8.9 31 -0.6 52 52 NNE 16 26 29.79 1009 10 16 0.00 0.00
3:53 pm 15:53 Sunny 45 7.2 31 -0.6 58 58 NNE 16 26 29.82 1010 10 16 0.00 0.00
4:53 pm 16:53 Sunny 41 5 30 -1.1 65 65 NE 9 15 29.84 1011 10 16 0.00 0.00
5:53 pm 17:53 Clear 37 2.8 28 -2.2 70 70 NNE 6 9 29.89 1012 10 16 0.00 0.00
6:53 pm 18:53 Clear 36 2.2 28 -2.2 73 73 NNE 14 22 29.91 1013 10 16 0.00 0.00
7:53 pm 19:53 Clear 35 1.7 28 -2.2 76 76 NNE 15 24 29.90 1013 10 16 0.00 0.00
8:53 pm 20:53 Clear 34 1.1 28 -2.2 79 79 NNE 14 22 29.90 1012 10 16 0.00 0.00
9:53 pm 21:53 Clear 33 0.6 29 -1.7 85 85 NNE 15 24 29.89 1012 10 16 0.00 0.00
10:53 pm 22:53 Clear 33 0.6 28 -2.2 82 82 NNE 15 24 29.89 1012 10 16 0.00 0.00
11:53 pm 23:53 Clear 33 0.6 29 -1.7 85 85 NNE 15 24 29.87 1012 10 16 0.00 0.00

Powered by AerisWeather